Flag Weather past 2 weeks in Churchill, Manitoba, Canada

Now
-8 °F

Passing clouds.


Feels Like: -26 °F
Forecast: N/A
Wind: 10 mph from West

Location: Churchill

Current Time: Nov 26, 2014 at 2:55:22 PM

Latest Report: Nov 26, 2014 at 2:00 PM


Visibility: 15 mi

Pressure: 30.27 "Hg

Humidity: 70%

Dew point: -15 °F

Location of ChurchillLocation

Historic Weather in Churchill — Graph

°F

Churchill temperature yesterday

Maximum temperature yesterday: -11 °F (at 12:00 PM)
Minimum temperature yesterday: -17 °F (at 12:00 AM)
Average temperature yesterday: -14 °F

Past Weeks' High & Low Weather Summary

 TemperatureHumidityPressure
High23 °F (Nov 12, 6:00 AM)100% (Nov 12, 12:00 AM)30.68 "Hg (Nov 12, 12:00 AM)
Low-17 °F (Nov 22, 8:00 PM)69% (Nov 23, 10:00 AM)29.47 "Hg (Nov 18, 12:00 PM)
Average-1 °F81%29.93 "Hg
* Reported Nov 11 1:00 PM — Nov 26 1:00 PM, Churchill, Weather by CustomWeather, © 2014

Note: Actual official high and low records may vary slightly from our data, if they occured in-between our weather recording intervals... More about our weather records

Advertising

Churchill weather history for previous 24 hours

 ConditionsComfort  
Time TempWeatherWind HumidityBarometerVisibility
1:00 PM
Nov 26
-8 °FPassing clouds.13 mph70%30.28 "Hg15 mi
12:00 PM-8 °FPassing clouds.12 mph70%30.27 "Hg15 mi
11:00 AM-11 °FPassing clouds.13 mph76%30.27 "Hg15 mi
10:00 AM-11 °FSunny.13 mph70%30.27 "Hg15 mi
9:00 AM-11 °FSnow flurries. Passing clouds.13 mph70%30.27 "Hg15 mi
8:00 AM-13 °FSnow flurries. Passing clouds.14 mph76%30.25 "Hg15 mi
7:00 AM-11 °FSnow flurries. Clear.15 mph76%30.24 "Hg15 mi
6:00 AM-11 °FSnow flurries. Clear.14 mph76%30.22 "Hg10 mi
5:00 AM-9 °FSnow flurries. Clear.17 mph77%30.20 "Hg4 mi
4:00 AM-9 °FSnow flurries. Clear.16 mph77%30.19 "Hg3 mi
3:00 AM-11 °FSnow flurries. Passing clouds.18 mph76%30.18 "Hg1 mi
2:00 AM-13 °FSnow flurries. Passing clouds.16 mph76%30.17 "Hg1 mi
1:00 AM-15 °FSnow flurries. Clear.14 mph76%30.16 "Hg2 mi
12:00 AM-15 °FSnow flurries. Clear.18 mph69%30.15 "Hg4 mi
11:00 PM
Nov 25
-17 °FSnow flurries. Clear.20 mph69%30.14 "Hg10 mi
10:00 PM-15 °FSnow flurries. Low level haze.20 mph69%30.14 "Hg5 mi
9:00 PM-15 °FSnow flurries. Passing clouds.20 mph76%30.14 "Hg5 mi
8:00 PM-11 °FSnow flurries. Passing clouds.21 mph76%30.11 "Hg5 mi
7:00 PM-11 °FSnow flurries. Passing clouds.21 mph76%30.11 "Hg5 mi
6:00 PM-11 °FSnow flurries. Passing clouds.18 mph76%30.11 "Hg5 mi
5:00 PM-11 °FSnow flurries. Passing clouds.17 mph76%30.11 "Hg4 mi
4:00 PM-11 °FSnow flurries. Passing clouds.17 mph76%30.09 "Hg3 mi
3:00 PM-11 °FSnow flurries. Sunny.18 mph76%30.07 "Hg3 mi
2:00 PM-11 °FSnow flurries. Sunny.16 mph76%30.04 "Hg4 mi
Weather by CustomWeather, © 2014

See weather overviewHow to use our weather pages